M I D A S
Marine Information and Data Acquisition System
Tripno 999 of the Zeeleeuw from 2005-07-19 09:09:39 to 2005-07-19 12:50:50
Back to CruiseResearch ActivitiesStationsMapUnderway DataData graphs

EquipmentUnitsComments
TimeDGPSUTC
LatitudeDGPSDM.mWGS84
LongitudeDGPSDM.mWGS84
SpeedMeteo Stationm/sRelative wind speed
DirectionMeteo StationdegRelative wind direction
TemperatureMeteo Stationdeg CelciusAir temperature
PressureMeteo StationPaAtmospheric pressure
HumidityMeteo Station%Relative humidity
Missing or incorrect values are displayed as -999
Metereological data collected by the RV Zeeleeuw from 2005-07-19 09:11:16 to 2005-07-19 12:57:17
                                                                                    Next 1000 lines
Time Latitude Longitude Speed Direction Temperature Pressure Humidity
2005-07-19 09:11:27 51°13.622 2°56.052 3.8 160 17.7 101500 67
2005-07-19 09:11:32 51°13.622 2°56.052 3.6 179 17.7 101500 67
2005-07-19 09:11:36 51°13.622 2°56.052 4 168 17.7 101500 67
2005-07-19 09:11:42 51°13.621 2°56.052 6.9 166 17.7 101490 66
2005-07-19 09:11:47 51°13.621 2°56.052 5.9 162 17.7 101490 66
2005-07-19 09:11:52 51°13.621 2°56.052 4.9 176 17.7 101500 67
2005-07-19 09:11:57 51°13.621 2°56.051 5.2 180 17.7 101500 67
2005-07-19 09:12:02 51°13.621 2°56.049 4.1 170 17.7 101500 67
2005-07-19 09:12:07 51°13.622 2°56.046 6 165 17.7 101500 67
2005-07-19 09:12:12 51°13.623 2°56.042 6.1 168 17.7 101500 67
2005-07-19 09:12:17 51°13.623 2°56.037 5.4 172 17.7 101500 67
2005-07-19 09:12:23 51°13.625 2°56.031 5.1 173 17.6 101500 67
2005-07-19 09:12:27 51°13.626 2°56.025 7.9 178 17.6 101500 67
2005-07-19 09:12:33 51°13.628 2°56.017 6.1 169 17.6 101500 67
2005-07-19 09:12:37 51°13.63 2°56.011 7 175 17.6 101500 67
2005-07-19 09:12:43 51°13.632 2°56.002 6.7 176 17.6 101500 67
2005-07-19 09:12:48 51°13.634 2°55.994 6 173 17.6 101500 67
2005-07-19 09:12:52 51°13.635 2°55.987 5.8 182 17.6 101500 67
2005-07-19 09:12:58 51°13.638 2°55.976 9.3 160 17.6 101500 67
2005-07-19 09:13:02 51°13.639 2°55.969 6.2 149 17.6 101500 67
2005-07-19 09:13:08 51°13.641 2°55.958 8.4 174 17.6 101500 67
2005-07-19 09:13:12 51°13.643 2°55.95 8.3 162 17.6 101500 67
2005-07-19 09:13:17 51°13.645 2°55.94 8.7 163 17.6 101500 67
2005-07-19 09:13:23 51°13.648 2°55.93 8.3 164 17.6 101490 67
2005-07-19 09:13:28 51°13.65 2°55.92 8.1 178 17.6 101490 67
2005-07-19 09:13:32 51°13.652 2°55.912 7.8 156 17.6 101490 67
2005-07-19 09:13:37 51°13.655 2°55.902 8.9 165 17.6 101490 67
2005-07-19 09:13:42 51°13.658 2°55.894 7.1 162 17.6 101500 67
2005-07-19 09:13:48 51°13.661 2°55.883 7.9 148 17.6 101500 67
2005-07-19 09:13:53 51°13.664 2°55.874 6.9 159 17.5 101490 67
2005-07-19 09:13:58 51°13.668 2°55.865 8.4 163 17.5 101490 67
2005-07-19 09:14:03 51°13.671 2°55.856 8 151 17.5 101490 67
2005-07-19 09:14:08 51°13.675 2°55.847 7.6 158 17.5 101490 67
2005-07-19 09:14:12 51°13.678 2°55.839 8.1 145 17.5 101490 67
2005-07-19 09:14:17 51°13.682 2°55.829 8.9 150 17.5 101490 67
2005-07-19 09:14:21 51°13.686 2°55.822 8.3 175 17.4 101490 68
2005-07-19 09:14:28 51°13.691 2°55.809 8.6 159 17.4 101490 68
2005-07-19 09:14:32 51°13.695 2°55.802 6.5 174 17.4 101480 68
2005-07-19 09:14:37 51°13.7 2°55.792 6.8 162 17.4 101480 68
2005-07-19 09:14:42 51°13.704 2°55.783 5.8 169 17.4 101480 68
2005-07-19 09:14:48 51°13.71 2°55.773 9.1 170 17.4 101480 68
2005-07-19 09:14:53 51°13.715 2°55.765 9.6 181 17.4 101490 68
2005-07-19 09:14:57 51°13.72 2°55.757 9.6 165 17.4 101490 68
2005-07-19 09:15:02 51°13.725 2°55.749 9.6 159 17.4 101500 68
2005-07-19 09:15:08 51°13.731 2°55.74 9.3 146 17.4 101500 68
2005-07-19 09:15:12 51°13.736 2°55.733 8.1 151 17.4 101500 68
2005-07-19 09:15:18 51°13.743 2°55.725 8.4 152 17.4 101500 68
2005-07-19 09:15:23 51°13.748 2°55.717 9.2 154 17.4 101490 68
2005-07-19 09:15:28 51°13.754 2°55.711 8.5 145 17.4 101490 68
2005-07-19 09:15:32 51°13.759 2°55.706 6.8 147 17.4 101490 68
2005-07-19 09:15:38 51°13.767 2°55.698 6.6 176 17.4 101490 68
2005-07-19 09:15:41 51°13.771 2°55.694 7.7 165 17.4 101490 68
2005-07-19 09:15:48 51°13.779 2°55.686 6.3 143 17.4 101490 68
2005-07-19 09:15:53 51°13.786 2°55.681 5.4 128 17.4 101490 68
2005-07-19 09:15:57 51°13.792 2°55.676 6.5 137 17.4 101490 68
2005-07-19 09:16:03 51°13.8 2°55.671 7.5 129 17.4 101490 68
2005-07-19 09:16:08 51°13.807 2°55.667 4.5 140 17.4 101490 68
2005-07-19 09:16:12 51°13.813 2°55.663 3.9 126 17.3 101490 68
2005-07-19 09:16:18 51°13.822 2°55.658 1.4 191 17.3 101490 68
2005-07-19 09:16:21 51°13.827 2°55.655 1 275 17.3 101490 68
2005-07-19 09:16:28 51°13.836 2°55.65 0.6 188 17.3 101490 68
2005-07-19 09:16:33 51°13.843 2°55.647 1.9 211 17.3 101490 68
2005-07-19 09:16:37 51°13.849 2°55.645 3.4 191 17.3 101490 68
2005-07-19 09:16:42 51°13.855 2°55.643 2.1 168 17.3 101490 69
2005-07-19 09:16:48 51°13.863 2°55.641 7.2 114 17.3 101490 69
2005-07-19 09:16:52 51°13.869 2°55.64 9.5 155 17.4 101500 69
2005-07-19 09:16:57 51°13.876 2°55.639 9 112 17.4 101500 69
2005-07-19 09:17:03 51°13.884 2°55.639 8.7 87 17.4 101490 69
2005-07-19 09:17:08 51°13.89 2°55.64 7.4 42 17.4 101490 69
2005-07-19 09:17:13 51°13.898 2°55.641 6 125 17.4 101490 68
2005-07-19 09:17:17 51°13.903 2°55.643 6.4 137 17.4 101490 68
2005-07-19 09:17:22 51°13.91 2°55.644 6.7 130 17.4 101490 68
2005-07-19 09:17:28 51°13.916 2°55.647 5.6 132 17.4 101490 68
2005-07-19 09:17:32 51°13.92 2°55.648 5.7 129 17.4 101480 69
2005-07-19 09:17:37 51°13.926 2°55.65 4.9 105 17.4 101480 69
2005-07-19 09:17:42 51°13.93 2°55.652 3.8 110 17.4 101490 69
2005-07-19 09:17:47 51°13.935 2°55.655 5.5 119 17.4 101490 69
2005-07-19 09:17:52 51°13.939 2°55.657 5.3 117 17.4 101500 69
2005-07-19 09:17:57 51°13.943 2°55.659 5.6 120 17.4 101500 69
2005-07-19 09:18:01 51°13.945 2°55.661 5.7 104 17.4 101490 69
2005-07-19 09:18:07 51°13.948 2°55.662 3.6 108 17.4 101490 69
2005-07-19 09:18:12 51°13.949 2°55.663 4.8 85 17.5 101500 69
2005-07-19 09:18:17 51°13.95 2°55.664 2.4 85 17.5 101500 69
2005-07-19 09:18:21 51°13.95 2°55.664 3.5 69 17.5 101490 69
2005-07-19 09:18:27 51°13.95 2°55.663 4.4 61 17.5 101490 69
2005-07-19 09:18:32 51°13.95 2°55.662 5.5 40 17.5 101490 69
2005-07-19 09:18:37 51°13.95 2°55.659 6.9 39 17.5 101490 69
2005-07-19 09:18:41 51°13.949 2°55.658 6.7 11 17.5 101500 69
2005-07-19 09:18:48 51°13.949 2°55.654 7.7 14 17.5 101500 69
2005-07-19 09:18:52 51°13.948 2°55.652 6.5 5 17.5 101500 69
2005-07-19 09:18:57 51°13.948 2°55.648 5.5 16 17.5 101500 69
2005-07-19 09:19:01 51°13.947 2°55.645 6.9 2 17.5 101490 69
2005-07-19 09:19:08 51°13.947 2°55.64 8.2 347 17.5 101490 69
2005-07-19 09:19:12 51°13.947 2°55.636 8.1 348 17.5 101490 69
2005-07-19 09:19:17 51°13.948 2°55.631 6.6 356 17.5 101490 69
2005-07-19 09:19:21 51°13.949 2°55.628 8.1 333 17.5 101490 68
2005-07-19 09:19:27 51°13.95 2°55.622 7.2 336 17.5 101490 68
2005-07-19 09:19:32 51°13.952 2°55.616 8.4 327 17.5 101490 68
2005-07-19 09:19:37 51°13.954 2°55.608 5.8 329 17.5 101490 68
2005-07-19 09:19:42 51°13.957 2°55.602 5.3 327 17.5 101490 68
2005-07-19 09:19:48 51°13.963 2°55.593 6.9 337 17.5 101490 68
2005-07-19 09:19:52 51°13.968 2°55.586 7.4 339 17.5 101500 68
2005-07-19 09:19:57 51°13.974 2°55.577 7.4 344 17.5 101500 68
2005-07-19 09:20:03 51°13.982 2°55.567 7.2 348 17.5 101490 68
2005-07-19 09:20:07 51°13.989 2°55.558 7.4 349 17.5 101490 68
2005-07-19 09:20:12 51°13.996 2°55.55 9.2 343 17.5 101490 68
2005-07-19 09:20:17 51°14.006 2°55.539 8.8 328 17.5 101490 68
2005-07-19 09:20:22 51°14.014 2°55.53 7.5 316 17.5 101490 69
2005-07-19 09:20:27 51°14.025 2°55.52 9.3 342 17.5 101490 69
2005-07-19 09:20:32 51°14.034 2°55.51 9.1 313 17.6 101490 69
2005-07-19 09:20:37 51°14.046 2°55.499 6.5 328 17.6 101490 69
2005-07-19 09:20:42 51°14.055 2°55.49 6.8 332 17.6 101490 68
2005-07-19 09:20:48 51°14.069 2°55.478 8.1 344 17.6 101490 68
2005-07-19 09:20:52 51°14.078 2°55.469 7.7 346 17.6 101490 68
2005-07-19 09:20:57 51°14.09 2°55.458 9.1 351 17.6 101490 68
2005-07-19 09:21:01 51°14.1 2°55.45 8.7 320 17.6 101490 68
2005-07-19 09:21:08 51°14.115 2°55.437 8.2 320 17.6 101490 68
2005-07-19 09:21:12 51°14.124 2°55.429 8.9 341 17.6 101490 68
2005-07-19 09:21:17 51°14.137 2°55.417 9.2 325 17.6 101490 68
2005-07-19 09:21:22 51°14.148 2°55.407 8.9 332 17.6 101490 68
2005-07-19 09:21:27 51°14.161 2°55.394 12.7 330 17.6 101490 68
2005-07-19 09:21:32 51°14.172 2°55.383 11.3 334 17.6 101480 68
2005-07-19 09:21:37 51°14.184 2°55.368 13.1 325 17.6 101480 68
2005-07-19 09:21:42 51°14.194 2°55.356 12.4 324 17.6 101490 68
2005-07-19 09:21:47 51°14.207 2°55.342 12.9 324 17.6 101490 68
2005-07-19 09:21:52 51°14.217 2°55.329 12.9 329 17.6 101480 68
2005-07-19 09:21:57 51°14.229 2°55.313 12 326 17.6 101480 68
2005-07-19 09:22:01 51°14.237 2°55.301 12.3 334 17.6 101480 68
2005-07-19 09:22:07 51°14.249 2°55.285 12.5 335 17.6 101480 68
2005-07-19 09:22:12 51°14.259 2°55.269 12.2 336 17.6 101480 67
2005-07-19 09:22:17 51°14.27 2°55.251 12.2 334 17.6 101480 67
2005-07-19 09:22:22 51°14.279 2°55.236 12.5 337 17.6 101480 67
2005-07-19 09:22:27 51°14.29 2°55.217 11.9 336 17.6 101480 67
2005-07-19 09:22:32 51°14.299 2°55.201 11.6 335 17.6 101480 68
2005-07-19 09:22:37 51°14.309 2°55.182 12.1 338 17.6 101480 68
2005-07-19 09:22:41 51°14.318 2°55.164 11.5 350 17.6 101480 68
2005-07-19 09:22:47 51°14.33 2°55.14 12.7 342 17.6 101480 68
2005-07-19 09:22:52 51°14.339 2°55.122 13.6 343 17.5 101480 68
2005-07-19 09:22:57 51°14.35 2°55.103 14.3 335 17.5 101480 68
2005-07-19 09:23:01 51°14.36 2°55.085 14 334 17.5 101480 68
2005-07-19 09:23:08 51°14.376 2°55.062 13.8 331 17.5 101480 68
2005-07-19 09:23:12 51°14.389 2°55.049 11.9 332 17.5 101480 69
2005-07-19 09:23:17 51°14.404 2°55.037 12.9 329 17.5 101480 69
2005-07-19 09:23:21 51°14.417 2°55.029 12.1 330 17.4 101470 69
2005-07-19 09:23:28 51°14.438 2°55.018 12 328 17.4 101470 69
2005-07-19 09:23:32 51°14.452 2°55.012 11.5 329 17.5 101470 70
2005-07-19 09:23:37 51°14.47 2°55.003 11.2 330 17.5 101470 70
2005-07-19 09:23:41 51°14.484 2°54.997 11.1 329 17.4 101470 69
2005-07-19 09:23:47 51°14.504 2°54.987 11.6 323 17.4 101470 69
2005-07-19 09:23:52 51°14.521 2°54.979 11 327 17.4 101470 69
2005-07-19 09:23:57 51°14.541 2°54.969 11.6 325 17.4 101470 69
2005-07-19 09:24:01 51°14.555 2°54.961 10.9 326 17.4 101470 68
2005-07-19 09:24:07 51°14.576 2°54.949 13.2 328 17.4 101470 68
2005-07-19 09:24:12 51°14.593 2°54.939 12.9 334 17.3 101480 68
2005-07-19 09:24:17 51°14.61 2°54.929 13.3 332 17.3 101480 68
2005-07-19 09:24:21 51°14.624 2°54.921 12.2 330 17.3 101470 69
2005-07-19 09:24:27 51°14.644 2°54.909 12.3 333 17.3 101470 69
2005-07-19 09:24:32 51°14.663 2°54.9 12 334 17.3 101470 70
2005-07-19 09:24:37 51°14.679 2°54.892 11.2 331 17.3 101470 70
2005-07-19 09:24:41 51°14.693 2°54.886 11.8 332 17.3 101470 69
2005-07-19 09:24:47 51°14.713 2°54.876 11.2 329 17.3 101470 69
2005-07-19 09:24:52 51°14.727 2°54.869 10.1 327 17.3 101480 70
2005-07-19 09:24:57 51°14.745 2°54.86 11.5 332 17.3 101480 70
2005-07-19 09:25:02 51°14.761 2°54.852 11.5 328 17.3 101480 70
2005-07-19 09:25:07 51°14.775 2°54.845 11.3 328 17.3 101480 70
2005-07-19 09:25:12 51°14.791 2°54.838 11.6 328 17.2 101480 69
2005-07-19 09:25:16 51°14.803 2°54.831 12.5 332 17.2 101480 69
2005-07-19 09:25:22 51°14.824 2°54.821 11.9 333 17.2 101480 70
2005-07-19 09:25:27 51°14.84 2°54.814 12.1 330 17.2 101480 70
2005-07-19 09:25:32 51°14.855 2°54.806 11.8 324 17.2 101470 70
2005-07-19 09:25:37 51°14.871 2°54.798 12 326 17.2 101470 70
2005-07-19 09:25:41 51°14.883 2°54.792 12 326 17.2 101480 69
2005-07-19 09:25:47 51°14.901 2°54.782 10.7 325 17.2 101480 69
2005-07-19 09:25:52 51°14.918 2°54.774 11.3 325 17.2 101480 70
2005-07-19 09:25:56 51°14.929 2°54.768 12.4 322 17.2 101480 70
2005-07-19 09:26:02 51°14.948 2°54.759 12.8 325 17.2 101470 70
2005-07-19 09:26:07 51°14.964 2°54.752 11.7 320 17.2 101470 70
2005-07-19 09:26:12 51°14.979 2°54.744 11.4 322 17.2 101480 71
2005-07-19 09:26:17 51°14.994 2°54.737 12.4 324 17.2 101480 71
2005-07-19 09:26:22 51°15.01 2°54.729 12 324 17.2 101480 71
2005-07-19 09:26:27 51°15.025 2°54.723 11.2 328 17.2 101480 71
2005-07-19 09:26:32 51°15.039 2°54.716 11.4 330 17.2 101460 71
2005-07-19 09:26:37 51°15.056 2°54.707 11.9 327 17.2 101460 71
2005-07-19 09:26:41 51°15.069 2°54.701 12 328 17.2 101480 72
2005-07-19 09:26:47 51°15.086 2°54.692 11.6 327 17.2 101480 72
2005-07-19 09:26:52 51°15.1 2°54.686 11 324 17.2 101470 72
2005-07-19 09:26:57 51°15.118 2°54.677 11.7 318 17.2 101470 72
2005-07-19 09:27:02 51°15.133 2°54.669 12.3 321 17.2 101470 71
2005-07-19 09:27:07 51°15.149 2°54.662 11.5 320 17.2 101470 71
2005-07-19 09:27:12 51°15.162 2°54.656 11 327 17.2 101470 70
2005-07-19 09:27:16 51°15.177 2°54.649 13 325 17.2 101470 70
2005-07-19 09:27:22 51°15.195 2°54.639 12 323 17.1 101480 70
2005-07-19 09:27:27 51°15.211 2°54.633 11.4 325 17.1 101480 70
2005-07-19 09:27:32 51°15.225 2°54.626 11.8 323 17.2 101470 71
2005-07-19 09:27:37 51°15.242 2°54.619 12 318 17.2 101470 71
2005-07-19 09:27:42 51°15.258 2°54.613 11.4 323 17.1 101480 70
2005-07-19 09:27:47 51°15.274 2°54.606 12.4 322 17.1 101480 70
2005-07-19 09:27:52 51°15.29 2°54.6 12.8 323 17.1 101480 70
2005-07-19 09:27:57 51°15.306 2°54.593 12.2 318 17.1 101480 70
2005-07-19 09:28:02 51°15.322 2°54.587 12.8 321 17.1 101470 70
2005-07-19 09:28:07 51°15.338 2°54.581 13 318 17.1 101470 70
2005-07-19 09:28:12 51°15.352 2°54.576 12.2 321 17.1 101470 70
2005-07-19 09:28:16 51°15.367 2°54.57 12.5 321 17.1 101470 70
2005-07-19 09:28:22 51°15.386 2°54.564 12.1 318 17.1 101460 70
2005-07-19 09:28:27 51°15.403 2°54.559 11 325 17.1 101460 70
2005-07-19 09:28:32 51°15.417 2°54.552 11.5 321 17.1 101470 69
2005-07-19 09:28:37 51°15.434 2°54.547 11.7 318 17.1 101470 69
2005-07-19 09:28:41 51°15.447 2°54.541 11.9 325 17.1 101470 68
2005-07-19 09:28:47 51°15.465 2°54.535 12.1 321 17.1 101470 68
2005-07-19 09:28:52 51°15.483 2°54.529 11 326 17.1 101470 68
2005-07-19 09:28:57 51°15.499 2°54.522 12 323 17.1 101470 68
2005-07-19 09:29:02 51°15.515 2°54.516 11.3 320 17.1 101470 68
2005-07-19 09:29:07 51°15.531 2°54.51 11.9 322 17.1 101470 68
2005-07-19 09:29:12 51°15.546 2°54.504 10.7 322 17.1 101480 69
2005-07-19 09:29:17 51°15.564 2°54.497 11.8 317 17.1 101480 69
2005-07-19 09:29:22 51°15.58 2°54.491 10.6 322 17.1 101470 69
2005-07-19 09:29:27 51°15.597 2°54.485 11.8 316 17.1 101470 69
2005-07-19 09:29:32 51°15.611 2°54.479 11.3 317 17.1 101470 69
2005-07-19 09:29:37 51°15.63 2°54.473 12.1 317 17.1 101470 69
2005-07-19 09:29:41 51°15.642 2°54.468 10.9 315 17.1 101470 69
2005-07-19 09:29:47 51°15.662 2°54.462 10.6 315 17.1 101470 69
2005-07-19 09:29:52 51°15.676 2°54.456 11.6 315 17.1 101480 70
2005-07-19 09:29:57 51°15.693 2°54.452 11.5 44 17.1 101480 70
2005-07-19 09:30:02 51°15.708 2°54.448 10.1 41 17.1 101470 70
2005-07-19 09:30:07 51°15.723 2°54.444 10.8 316 17.1 101470 70
2005-07-19 09:30:12 51°15.736 2°54.44 10.7 44 17.1 101480 69
2005-07-19 09:30:16 51°15.746 2°54.437 10.1 43 17.1 101480 69
2005-07-19 09:30:21 51°15.76 2°54.434 11 315 17.1 101470 69
2005-07-19 09:30:28 51°15.777 2°54.428 10.9 226 17.1 101470 69
2005-07-19 09:30:32 51°15.788 2°54.425 11.1 228 17.1 101480 69
2005-07-19 09:30:37 51°15.803 2°54.42 11.1 315 17.1 101480 69
2005-07-19 09:30:41 51°15.813 2°54.417 10 41 17.1 101470 70
2005-07-19 09:30:47 51°15.829 2°54.412 9.8 313 17.1 101470 70
2005-07-19 09:30:52 51°15.841 2°54.408 11.3 309 17.2 101480 70
2005-07-19 09:30:56 51°15.851 2°54.405 10.1 314 17.2 101480 70
2005-07-19 09:31:01 51°15.864 2°54.401 10.3 312 17.1 101480 69
2005-07-19 09:31:07 51°15.881 2°54.397 9.6 309 17.1 101480 69
2005-07-19 09:31:12 51°15.894 2°54.394 9.8 312 17.2 101470 69
2005-07-19 09:31:17 51°15.906 2°54.39 8.7 314 17.2 101470 69
2005-07-19 09:31:22 51°15.919 2°54.386 10.9 312 17.2 101480 69
2005-07-19 09:31:27 51°15.932 2°54.382 9.5 304 17.2 101480 69
2005-07-19 09:31:32 51°15.943 2°54.379 10.8 309 17.2 101470 69
2005-07-19 09:31:37 51°15.956 2°54.375 11.7 309 17.2 101470 69
2005-07-19 09:31:42 51°15.968 2°54.372 11.3 307 17.2 101480 69
2005-07-19 09:31:47 51°15.979 2°54.369 9.5 308 17.2 101480 69
2005-07-19 09:31:52 51°15.988 2°54.367 9.4 310 17.2 101480 70
2005-07-19 09:31:57 51°16 2°54.365 9.9 308 17.2 101480 70
2005-07-19 09:32:01 51°16.008 2°54.363 8.9 309 17.3 101480 70
2005-07-19 09:32:07 51°16.019 2°54.361 8.4 309 17.3 101480 70
2005-07-19 09:32:12 51°16.029 2°54.361 9.2 313 17.3 101480 71
2005-07-19 09:32:17 51°16.038 2°54.359 9.7 228 17.3 101480 71
2005-07-19 09:32:22 51°16.045 2°54.358 9.1 308 17.3 101480 71
2005-07-19 09:32:27 51°16.055 2°54.357 8.1 314 17.3 101480 71
2005-07-19 09:32:32 51°16.062 2°54.357 7.7 312 17.3 101500 71
2005-07-19 09:32:37 51°16.071 2°54.356 8.4 310 17.3 101500 71
2005-07-19 09:32:42 51°16.078 2°54.355 8.5 306 17.3 101490 71
2005-07-19 09:32:47 51°16.085 2°54.355 7.9 301 17.3 101490 71
2005-07-19 09:32:52 51°16.093 2°54.356 9.3 296 17.3 101490 70
2005-07-19 09:32:57 51°16.099 2°54.357 9.2 299 17.3 101490 70
2005-07-19 09:33:02 51°16.107 2°54.357 9.6 293 17.3 101500 69
2005-07-19 09:33:07 51°16.114 2°54.359 9.4 293 17.3 101500 69
2005-07-19 09:33:12 51°16.119 2°54.359 9.2 297 17.3 101490 70
2005-07-19 09:33:17 51°16.127 2°54.36 8.7 298 17.3 101490 70
2005-07-19 09:33:22 51°16.133 2°54.36 9 299 17.4 101490 70
2005-07-19 09:33:27 51°16.139 2°54.36 9.5 299 17.4 101490 70
2005-07-19 09:33:32 51°16.146 2°54.36 8.8 305 17.4 101490 70
2005-07-19 09:33:37 51°16.153 2°54.36 9.6 302 17.4 101490 70
2005-07-19 09:33:41 51°16.158 2°54.36 9.7 302 17.4 101490 70
2005-07-19 09:33:47 51°16.165 2°54.36 9.3 308 17.4 101490 70
2005-07-19 09:33:52 51°16.171 2°54.36 9.7 309 17.4 101490 69
2005-07-19 09:33:57 51°16.177 2°54.359 8.5 308 17.4 101490 69
2005-07-19 09:34:02 51°16.182 2°54.36 8.9 312 17.4 101500 69
2005-07-19 09:34:07 51°16.188 2°54.359 9 311 17.4 101500 69
2005-07-19 09:34:12 51°16.193 2°54.359 8.5 311 17.4 101490 69
2005-07-19 09:34:17 51°16.198 2°54.359 8.8 314 17.4 101490 69
2005-07-19 09:34:22 51°16.202 2°54.359 8.6 313 17.4 101490 69
2005-07-19 09:34:27 51°16.207 2°54.359 8.7 315 17.4 101490 69
2005-07-19 09:34:32 51°16.211 2°54.359 8.7 43 17.4 101490 69
2005-07-19 09:34:37 51°16.215 2°54.36 8.5 311 17.4 101490 69
2005-07-19 09:34:41 51°16.218 2°54.36 9.1 314 17.4 101490 68
2005-07-19 09:34:47 51°16.223 2°54.361 8.1 226 17.4 101490 68
2005-07-19 09:34:52 51°16.227 2°54.362 8.1 312 17.4 101500 68
2005-07-19 09:34:57 51°16.23 2°54.362 8.6 312 17.4 101500 68
2005-07-19 09:35:01 51°16.233 2°54.363 8.5 313 17.4 101490 68
2005-07-19 09:35:07 51°16.236 2°54.365 8.7 314 17.4 101490 68
2005-07-19 09:35:12 51°16.239 2°54.366 8.9 310 17.4 101490 67
2005-07-19 09:35:17 51°16.242 2°54.368 8.4 312 17.4 101490 67
2005-07-19 09:35:21 51°16.245 2°54.369 8.8 311 17.5 101490 67
2005-07-19 09:35:27 51°16.248 2°54.371 7.8 227 17.5 101490 67
2005-07-19 09:35:32 51°16.25 2°54.372 8.2 316 17.5 101490 67
2005-07-19 09:35:37 51°16.253 2°54.374 7.8 317 17.5 101490 67
2005-07-19 09:35:42 51°16.255 2°54.375 7.6 316 17.4 101490 67
2005-07-19 09:35:47 51°16.258 2°54.376 7.8 316 17.4 101490 67
2005-07-19 09:35:51 51°16.261 2°54.377 8.1 326 17.5 101490 67
2005-07-19 09:35:57 51°16.263 2°54.378 7.8 323 17.5 101490 67
2005-07-19 09:36:01 51°16.266 2°54.378 7 329 17.5 101500 67
2005-07-19 09:36:07 51°16.268 2°54.379 8.4 337 17.5 101500 67
2005-07-19 09:36:12 51°16.27 2°54.38 8.9 345 17.5 101490 67
2005-07-19 09:36:17 51°16.272 2°54.38 8.5 344 17.5 101490 67
2005-07-19 09:36:21 51°16.274 2°54.38 8.9 349 17.5 101490 68
2005-07-19 09:36:27 51°16.276 2°54.38 8.4 356 17.5 101490 68
2005-07-19 09:36:32 51°16.278 2°54.379 8.5 353 17.5 101490 68
2005-07-19 09:36:37 51°16.279 2°54.38 8 2 17.5 101490 68
2005-07-19 09:36:42 51°16.28 2°54.38 8.7 3 17.5 101490 68
2005-07-19 09:36:47 51°16.281 2°54.38 8.7 18 17.5 101490 68
2005-07-19 09:36:52 51°16.282 2°54.38 9.8 15 17.5 101490 67
2005-07-19 09:36:57 51°16.282 2°54.38 8 22 17.5 101490 67
2005-07-19 09:37:02 51°16.282 2°54.38 8.9 26 17.5 101500 67
2005-07-19 09:37:07 51°16.282 2°54.379 9 26 17.5 101500 67
2005-07-19 09:37:12 51°16.282 2°54.379 8.8 32 17.5 101500 67
2005-07-19 09:37:16 51°16.281 2°54.379 8.7 32 17.5 101500 67
2005-07-19 09:37:22 51°16.28 2°54.378 9.3 31 17.4 101490 67
2005-07-19 09:37:27 51°16.279 2°54.378 9.2 34 17.4 101490 67
2005-07-19 09:37:32 51°16.278 2°54.378 9 34 17.4 101490 67
2005-07-19 09:37:37 51°16.277 2°54.377 9.2 34 17.4 101490 67
2005-07-19 09:37:41 51°16.276 2°54.377 8.5 33 17.4 101500 68
2005-07-19 09:37:47 51°16.274 2°54.376 8.2 32 17.4 101500 68
2005-07-19 09:37:52 51°16.273 2°54.375 7.9 35 17.3 101490 67
2005-07-19 09:37:57 51°16.271 2°54.374 8.3 33 17.3 101490 67
2005-07-19 09:38:02 51°16.269 2°54.373 7.2 42 17.3 101500 66
2005-07-19 09:38:07 51°16.268 2°54.372 8.6 34 17.3 101500 66
2005-07-19 09:38:12 51°16.267 2°54.371 8.4 37 17.2 101500 66
2005-07-19 09:38:17 51°16.266 2°54.369 8.4 22 17.2 101500 66
2005-07-19 09:38:22 51°16.265 2°54.367 8.5 23 17.2 101490 67
2005-07-19 09:38:27 51°16.264 2°54.365 9.3 25 17.2 101490 67
2005-07-19 09:38:32 51°16.264 2°54.363 9.3 23 17.2 101500 68
2005-07-19 09:38:37 51°16.263 2°54.361 9.3 14 17.2 101500 68
2005-07-19 09:38:41 51°16.263 2°54.359 8.4 16 17.2 101490 70
2005-07-19 09:38:47 51°16.263 2°54.356 9.4 14 17.2 101490 70
2005-07-19 09:38:52 51°16.263 2°54.355 9.9 16 17.2 101500 69
2005-07-19 09:38:57 51°16.263 2°54.353 9.6 16 17.2 101500 69
2005-07-19 09:39:02 51°16.262 2°54.351 10 16 17.2 101490 69
2005-07-19 09:39:07 51°16.262 2°54.349 9.5 13 17.2 101490 69
2005-07-19 09:39:12 51°16.263 2°54.347 9.6 12 17.2 101500 69
2005-07-19 09:39:16 51°16.263 2°54.345 9.5 4 17.2 101500 69
2005-07-19 09:39:21 51°16.262 2°54.342 9.5 12 17.2 101500 69
2005-07-19 09:39:27 51°16.262 2°54.339 9.5 11 17.2 101500 69
2005-07-19 09:39:32 51°16.262 2°54.336 9.2 13 17.1 101490 68
2005-07-19 09:39:37 51°16.262 2°54.333 9.3 13 17.1 101490 68
2005-07-19 09:39:41 51°16.261 2°54.332 10.6 22 17.2 101490 68
2005-07-19 09:39:47 51°16.261 2°54.33 8.9 19 17.2 101490 68
2005-07-19 09:39:52 51°16.26 2°54.328 8.7 25 17.2 101500 68
2005-07-19 09:39:57 51°16.259 2°54.326 9.3 22 17.2 101500 68
2005-07-19 09:40:02 51°16.258 2°54.325 9.1 29 17.2 101500 69
2005-07-19 09:40:07 51°16.257 2°54.324 8.3 25 17.2 101500 69
2005-07-19 09:40:12 51°16.256 2°54.323 9.4 27 17.2 101490 69
2005-07-19 09:40:17 51°16.255 2°54.323 8.9 30 17.2 101490 69
2005-07-19 09:40:21 51°16.254 2°54.321 8.7 32 17.2 101490 69
2005-07-19 09:40:27 51°16.253 2°54.321 8 30 17.2 101490 69
2005-07-19 09:40:32 51°16.252 2°54.32 8.1 32 17.2 101500 69
2005-07-19 09:40:37 51°16.251 2°54.319 8.7 25 17.2 101500 69
2005-07-19 09:40:41 51°16.25 2°54.319 8.7 23 17.2 101500 69
2005-07-19 09:40:47 51°16.249 2°54.319 9.2 22 17.2 101500 69
2005-07-19 09:40:52 51°16.248 2°54.319 8.5 17 17.2 101490 69
2005-07-19 09:40:57 51°16.248 2°54.319 7.9 14 17.2 101490 69
2005-07-19 09:41:01 51°16.248 2°54.32 7.6 10 17.2 101490 68
2005-07-19 09:41:07 51°16.248 2°54.32 8.3 7 17.2 101490 68
2005-07-19 09:41:12 51°16.248 2°54.32 9.3 8 17.2 101500 68
2005-07-19 09:41:17 51°16.248 2°54.319 9.2 5 17.2 101500 68
2005-07-19 09:41:22 51°16.248 2°54.319 8.7 -999 17.2 101500 69
2005-07-19 09:41:27 51°16.249 2°54.319 8.5 2 17.2 101500 69
2005-07-19 09:41:32 51°16.249 2°54.318 9 349 17.2 101500 70
2005-07-19 09:41:37 51°16.25 2°54.319 8.7 1 17.2 101500 70
2005-07-19 09:41:42 51°16.251 2°54.318 8.8 356 17.2 101500 69
2005-07-19 09:41:47 51°16.251 2°54.318 9 3 17.2 101500 69
2005-07-19 09:41:52 51°16.252 2°54.318 8.7 356 17.2 101500 69
2005-07-19 09:41:57 51°16.253 2°54.318 9.1 10 17.2 101500 69
2005-07-19 09:42:01 51°16.254 2°54.317 9.1 6 17.2 101500 69
2005-07-19 09:42:07 51°16.255 2°54.317 8.1 6 17.2 101500 69
2005-07-19 09:42:12 51°16.255 2°54.317 8.4 16 17.2 101500 69
2005-07-19 09:42:17 51°16.256 2°54.317 8.4 16 17.2 101500 69
2005-07-19 09:42:21 51°16.256 2°54.317 8.8 17 17.2 101500 69
2005-07-19 09:42:27 51°16.257 2°54.317 9.2 18 17.2 101500 69
2005-07-19 09:42:32 51°16.257 2°54.317 8.8 17 17.2 101500 69
2005-07-19 09:42:37 51°16.258 2°54.316 9.1 24 17.2 101500 69
2005-07-19 09:42:41 51°16.258 2°54.316 9.4 22 17.3 101500 70
2005-07-19 09:42:47 51°16.258 2°54.316 9.5 26 17.3 101500 70
2005-07-19 09:42:52 51°16.258 2°54.316 9.6 27 17.2 101500 70
2005-07-19 09:42:57 51°16.258 2°54.316 8.2 25 17.2 101500 70
2005-07-19 09:43:02 51°16.259 2°54.316 9.5 26 17.3 101500 70
2005-07-19 09:43:07 51°16.258 2°54.317 8.3 26 17.3 101500 70
2005-07-19 09:43:12 51°16.258 2°54.317 8.5 25 17.3 101500 70
2005-07-19 09:43:17 51°16.258 2°54.317 8.5 26 17.3 101500 70
2005-07-19 09:43:21 51°16.258 2°54.318 8.7 20 17.3 101490 70
2005-07-19 09:43:27 51°16.258 2°54.317 8.3 22 17.3 101490 70
2005-07-19 09:43:32 51°16.259 2°54.318 8.2 22 17.2 101490 69
2005-07-19 09:43:37 51°16.259 2°54.318 8.2 22 17.2 101490 69
2005-07-19 09:43:41 51°16.259 2°54.318 8.1 17 17.2 101500 68
2005-07-19 09:43:47 51°16.259 2°54.319 8.5 13 17.2 101500 68
2005-07-19 09:43:52 51°16.259 2°54.32 9.3 14 17.3 101500 69
2005-07-19 09:43:57 51°16.26 2°54.321 8.4 13 17.3 101500 69
2005-07-19 09:44:01 51°16.26 2°54.321 8 19 17.2 101490 69
2005-07-19 09:44:07 51°16.26 2°54.322 7.8 16 17.2 101490 69
2005-07-19 09:44:11 51°16.26 2°54.322 8.8 11 17.2 101500 68
2005-07-19 09:44:17 51°16.26 2°54.324 8.4 17 17.2 101500 68
2005-07-19 09:44:21 51°16.26 2°54.324 9 8 17.2 101490 68
2005-07-19 09:44:27 51°16.261 2°54.326 9.9 18 17.2 101490 68
2005-07-19 09:44:32 51°16.261 2°54.327 10.1 17 17.2 101500 69
2005-07-19 09:44:37 51°16.262 2°54.329 9.3 19 17.2 101500 69
2005-07-19 09:44:41 51°16.262 2°54.329 8.9 19 17.3 101500 69
2005-07-19 09:44:47 51°16.262 2°54.33 8.6 17 17.3 101500 69
2005-07-19 09:44:51 51°16.262 2°54.331 8.5 22 17.3 101510 69
2005-07-19 09:44:57 51°16.263 2°54.333 8 20 17.3 101510 69
2005-07-19 09:45:01 51°16.263 2°54.333 7.6 24 17.3 101500 68
2005-07-19 09:45:07 51°16.263 2°54.335 7.7 22 17.3 101500 68
2005-07-19 09:45:11 51°16.263 2°54.336 7.7 19 17.3 101500 67
2005-07-19 09:45:17 51°16.263 2°54.337 8 15 17.3 101500 67
2005-07-19 09:45:22 51°16.263 2°54.338 7.9 19 17.3 101500 67
2005-07-19 09:45:27 51°16.263 2°54.339 8.7 14 17.3 101500 67
2005-07-19 09:45:32 51°16.263 2°54.34 9 18 17.2 101500 67
2005-07-19 09:45:37 51°16.263 2°54.34 9.5 13 17.2 101500 67
2005-07-19 09:45:41 51°16.263 2°54.341 9.5 10 17.2 101500 67
2005-07-19 09:45:47 51°16.263 2°54.342 9.4 12 17.2 101500 67
2005-07-19 09:45:52 51°16.263 2°54.342 9.3 12 17.2 101500 67
2005-07-19 09:45:57 51°16.263 2°54.343 8.5 11 17.2 101500 67
2005-07-19 09:46:01 51°16.263 2°54.343 8.4 13 17.2 101500 67
2005-07-19 09:46:07 51°16.263 2°54.344 9.8 14 17.2 101500 67
2005-07-19 09:46:12 51°16.263 2°54.344 9.2 14 17.2 101500 67
2005-07-19 09:46:17 51°16.263 2°54.345 10.7 11 17.2 101500 67
2005-07-19 09:46:21 51°16.263 2°54.345 10 13 17.2 101500 66
2005-07-19 09:46:28 51°16.263 2°54.346 10.3 13 17.2 101500 66
2005-07-19 09:46:32 51°16.263 2°54.346 9.4 16 17.2 101510 66
2005-07-19 09:46:37 51°16.264 2°54.347 8.8 7 17.2 101510 66
2005-07-19 09:46:41 51°16.263 2°54.348 8.4 12 17.2 101500 67
2005-07-19 09:46:47 51°16.264 2°54.348 8.6 17 17.2 101500 67
2005-07-19 09:46:52 51°16.264 2°54.348 8.5 11 17.2 101510 66
2005-07-19 09:46:57 51°16.264 2°54.348 8.9 13 17.2 101510 66
2005-07-19 09:47:01 51°16.264 2°54.349 8.7 11 17.2 101500 66
2005-07-19 09:47:07 51°16.264 2°54.349 8.3 10 17.2 101500 66
2005-07-19 09:47:12 51°16.265 2°54.349 8.9 13 17.2 101510 67
2005-07-19 09:47:17 51°16.264 2°54.35 8.4 11 17.2 101510 67
2005-07-19 09:47:22 51°16.265 2°54.35 9.6 12 17.2 101510 68
2005-07-19 09:47:27 51°16.265 2°54.351 8.7 15 17.2 101510 68
2005-07-19 09:47:32 51°16.265 2°54.351 10.2 20 17.2 101500 68
2005-07-19 09:47:37 51°16.264 2°54.352 9.1 23 17.2 101500 68
2005-07-19 09:47:41 51°16.264 2°54.353 9.1 27 17.2 101500 68
2005-07-19 09:47:47 51°16.264 2°54.353 9.8 32 17.2 101500 68
2005-07-19 09:47:52 51°16.264 2°54.354 9.3 34 17.2 101500 67
2005-07-19 09:47:57 51°16.263 2°54.355 9.5 35 17.2 101500 67
2005-07-19 09:48:02 51°16.263 2°54.356 10.1 34 17.2 101500 66
2005-07-19 09:48:07 51°16.263 2°54.356 9.8 34 17.2 101500 66
2005-07-19 09:48:12 51°16.262 2°54.357 9.6 30 17.2 101500 66
2005-07-19 09:48:17 51°16.262 2°54.358 9.1 31 17.2 101500 66
2005-07-19 09:48:21 51°16.262 2°54.359 9 24 17.2 101500 66
2005-07-19 09:48:27 51°16.262 2°54.359 9 27 17.2 101500 66
2005-07-19 09:48:32 51°16.262 2°54.36 9.5 25 17.2 101500 66
2005-07-19 09:48:37 51°16.262 2°54.36 9.3 26 17.2 101500 66
2005-07-19 09:48:41 51°16.262 2°54.361 9.1 23 17.1 101500 66
2005-07-19 09:48:47 51°16.262 2°54.362 8.3 17 17.1 101500 66
2005-07-19 09:48:51 51°16.262 2°54.362 9.1 17 17.1 101500 66
2005-07-19 09:48:57 51°16.262 2°54.363 9.9 20 17.1 101500 66
2005-07-19 09:49:01 51°16.263 2°54.364 10.4 17 17.1 101490 67
2005-07-19 09:49:07 51°16.263 2°54.365 9.4 13 17.1 101490 67
2005-07-19 09:49:12 51°16.263 2°54.365 8 10 17.1 101500 68
2005-07-19 09:49:17 51°16.263 2°54.366 8.7 8 17.1 101500 68
2005-07-19 09:49:21 51°16.264 2°54.366 9.1 7 17.1 101500 68
2005-07-19 09:49:27 51°16.265 2°54.367 8.4 360 17.1 101500 68
2005-07-19 09:49:32 51°16.265 2°54.368 8.9 8 17.2 101490 69
2005-07-19 09:49:37 51°16.266 2°54.369 8.2 5 17.2 101490 69
2005-07-19 09:49:41 51°16.266 2°54.37 8.2 5 17.2 101510 69
2005-07-19 09:49:47 51°16.267 2°54.371 7.7 357 17.2 101510 69
2005-07-19 09:49:52 51°16.267 2°54.372 8.6 356 17.2 101500 69
2005-07-19 09:49:57 51°16.269 2°54.372 8.8 1 17.2 101500 69
2005-07-19 09:50:01 51°16.269 2°54.373 8.2 357 17.2 101500 69
2005-07-19 09:50:07 51°16.27 2°54.374 9.4 356 17.2 101500 69
2005-07-19 09:50:11 51°16.271 2°54.374 8.9 1 17.2 101500 69
2005-07-19 09:50:17 51°16.272 2°54.375 9.7 -999 17.2 101500 69
2005-07-19 09:50:21 51°16.272 2°54.376 9.7 1 17.2 101510 69
2005-07-19 09:50:27 51°16.274 2°54.377 8.7 359 17.2 101510 69
2005-07-19 09:50:32 51°16.274 2°54.377 9.3 6 17.2 101500 69
2005-07-19 09:50:37 51°16.275 2°54.378 9.2 9 17.2 101500 69
2005-07-19 09:50:42 51°16.276 2°54.379 8.6 10 17.3 101510 69
2005-07-19 09:50:47 51°16.277 2°54.379 8.4 3 17.3 101510 69
2005-07-19 09:50:52 51°16.278 2°54.38 8.4 4 17.2 101510 68
2005-07-19 09:50:57 51°16.278 2°54.38 8.4 8 17.2 101510 68
2005-07-19 09:51:01 51°16.278 2°54.381 10 9 17.3 101500 68
2005-07-19 09:51:08 51°16.279 2°54.381 9.6 18 17.3 101500 68
2005-07-19 09:51:12 51°16.28 2°54.382 9.9 11 17.3 101490 68
2005-07-19 09:51:17 51°16.28 2°54.383 9.7 14 17.3 101490 68
2005-07-19 09:51:22 51°16.281 2°54.384 9.4 12 17.3 101490 69
2005-07-19 09:51:27 51°16.281 2°54.384 9 10 17.3 101490 69
2005-07-19 09:51:32 51°16.282 2°54.384 8.2 10 17.3 101510 69
2005-07-19 09:51:37 51°16.283 2°54.386 8.2 12 17.3 101510 69
2005-07-19 09:51:41 51°16.283 2°54.386 8.6 16 17.3 101500 69
2005-07-19 09:51:47 51°16.283 2°54.386 8.7 19 17.3 101500 69
2005-07-19 09:51:52 51°16.283 2°54.387 8.2 13 17.3 101500 68
2005-07-19 09:51:57 51°16.284 2°54.387 8.9 12 17.3 101500 68
2005-07-19 09:52:01 51°16.285 2°54.387 8.2 6 17.3 101500 68
2005-07-19 09:52:07 51°16.285 2°54.386 7.6 5 17.3 101500 68
2005-07-19 09:52:11 51°16.286 2°54.386 8.7 356 17.3 101500 69
2005-07-19 09:52:17 51°16.286 2°54.385 9.7 353 17.3 101500 69
2005-07-19 09:52:21 51°16.287 2°54.385 9.7 357 17.3 101500 69
2005-07-19 09:52:27 51°16.288 2°54.384 10.3 357 17.3 101500 69
2005-07-19 09:52:32 51°16.288 2°54.384 9.7 352 17.3 101510 69
2005-07-19 09:52:36 51°16.289 2°54.383 10.4 353 17.3 101510 69
2005-07-19 09:52:41 51°16.29 2°54.382 10.3 354 17.3 101510 69
2005-07-19 09:52:47 51°16.291 2°54.381 9.3 348 17.3 101510 69
2005-07-19 09:52:52 51°16.292 2°54.38 10.1 349 17.3 101500 69
2005-07-19 09:52:57 51°16.293 2°54.378 10.6 350 17.3 101500 69
2005-07-19 09:53:01 51°16.294 2°54.377 9 349 17.3 101500 69
2005-07-19 09:53:07 51°16.295 2°54.375 9.8 347 17.3 101500 69
2005-07-19 09:53:12 51°16.296 2°54.374 9.7 353 17.3 101500 68
2005-07-19 09:53:16 51°16.297 2°54.374 10 351 17.3 101500 68
2005-07-19 09:53:21 51°16.298 2°54.372 9.3 359 17.3 101500 69
2005-07-19 09:53:28 51°16.299 2°54.371 9.2 2 17.3 101500 69
2005-07-19 09:53:32 51°16.3 2°54.369 9.7 1 17.4 101510 69
2005-07-19 09:53:37 51°16.301 2°54.367 9.1 3 17.4 101510 69
2005-07-19 09:53:41 51°16.301 2°54.366 8.7 4 17.4 101500 70
2005-07-19 09:53:47 51°16.302 2°54.364 8.7 7 17.4 101500 70
2005-07-19 09:53:52 51°16.302 2°54.362 8.7 1 17.4 101500 71
2005-07-19 09:53:57 51°16.303 2°54.359 9.4 6 17.4 101500 71
2005-07-19 09:54:02 51°16.303 2°54.357 9 6 17.5 101510 71
2005-07-19 09:54:07 51°16.304 2°54.354 8.9 11 17.5 101510 71
2005-07-19 09:54:12 51°16.304 2°54.351 8.9 12 17.5 101510 71
2005-07-19 09:54:17 51°16.304 2°54.349 10 11 17.5 101510 71
2005-07-19 09:54:21 51°16.303 2°54.347 9.8 10 17.5 101510 72
2005-07-19 09:54:27 51°16.303 2°54.343 11.1 8 17.5 101510 72
2005-07-19 09:54:32 51°16.303 2°54.34 10.9 10 17.6 101510 72
2005-07-19 09:54:37 51°16.303 2°54.338 11.1 12 17.6 101510 72
2005-07-19 09:54:41 51°16.302 2°54.335 10.9 13 17.6 101500 72
2005-07-19 09:54:47 51°16.302 2°54.332 10.1 12 17.6 101500 72
2005-07-19 09:54:52 51°16.301 2°54.329 10.3 18 17.5 101500 70
2005-07-19 09:54:57 51°16.3 2°54.327 10.1 17 17.5 101500 70
2005-07-19 09:55:02 51°16.299 2°54.325 9.3 22 17.5 101500 68
2005-07-19 09:55:07 51°16.298 2°54.322 9.8 23 17.5 101500 68
2005-07-19 09:55:12 51°16.297 2°54.32 10.3 28 17.5 101500 67
2005-07-19 09:55:17 51°16.296 2°54.318 9.3 30 17.5 101500 67
2005-07-19 09:55:21 51°16.295 2°54.316 8.8 27 17.5 101500 68
2005-07-19 09:55:27 51°16.293 2°54.313 11.1 26 17.5 101500 68
2005-07-19 09:55:32 51°16.292 2°54.311 9.5 33 17.5 101490 68
2005-07-19 09:55:37 51°16.291 2°54.31 10.1 30 17.5 101490 68
2005-07-19 09:55:41 51°16.29 2°54.309 9.6 27 17.5 101500 68
2005-07-19 09:55:47 51°16.289 2°54.307 10.3 21 17.5 101500 68
2005-07-19 09:55:52 51°16.288 2°54.305 11.3 20 17.4 101510 68
2005-07-19 09:55:57 51°16.287 2°54.303 10.2 24 17.4 101510 68
2005-07-19 09:56:01 51°16.286 2°54.302 10.2 20 17.4 101500 69
2005-07-19 09:56:07 51°16.285 2°54.3 11.1 23 17.4 101500 69
2005-07-19 09:56:12 51°16.284 2°54.299 10.5 26 17.5 101500 70
2005-07-19 09:56:17 51°16.283 2°54.297 10.3 19 17.5 101500 70
2005-07-19 09:56:21 51°16.283 2°54.296 10.8 25 17.4 101500 69
2005-07-19 09:56:27 51°16.282 2°54.294 9.9 24 17.4 101500 69
2005-07-19 09:56:32 51°16.281 2°54.293 9.7 28 17.4 101500 67
2005-07-19 09:56:37 51°16.281 2°54.291 8.2 20 17.4 101500 67
2005-07-19 09:56:41 51°16.281 2°54.289 9.1 23 17.4 101500 66
2005-07-19 09:56:47 51°16.28 2°54.287 8.6 20 17.4 101500 66
2005-07-19 09:56:52 51°16.279 2°54.285 9.8 15 17.4 101490 66
2005-07-19 09:56:57 51°16.279 2°54.283 9.8 12 17.4 101490 66
2005-07-19 09:57:01 51°16.279 2°54.282 8.9 14 17.4 101490 66
2005-07-19 09:57:07 51°16.279 2°54.279 10.5 15 17.4 101490 66
2005-07-19 09:57:12 51°16.279 2°54.277 9.6 10 17.4 101510 66
2005-07-19 09:57:16 51°16.279 2°54.275 11.2 15 17.4 101510 66
2005-07-19 09:57:22 51°16.279 2°54.272 11.1 15 17.4 101500 66
2005-07-19 09:57:27 51°16.279 2°54.27 9.5 13 17.4 101500 66
2005-07-19 09:57:32 51°16.279 2°54.268 11.1 8 17.4 101500 66
2005-07-19 09:57:37 51°16.279 2°54.266 11 14 17.4 101500 66
2005-07-19 09:57:42 51°16.279 2°54.264 11 14 17.4 101500 66
2005-07-19 09:57:48 51°16.279 2°54.262 10.8 14 17.4 101500 66
2005-07-19 09:57:52 51°16.279 2°54.261 10.8 17 17.4 101490 65
2005-07-19 09:57:57 51°16.278 2°54.258 11.3 20 17.4 101490 65
2005-07-19 09:58:02 51°16.278 2°54.257 10.9 20 17.4 101500 65
2005-07-19 09:58:07 51°16.278 2°54.255 11.5 19 17.4 101500 65
2005-07-19 09:58:12 51°16.277 2°54.254 11 22 17.4 101500 64
2005-07-19 09:58:17 51°16.277 2°54.252 11.5 26 17.4 101500 64
2005-07-19 09:58:22 51°16.277 2°54.251 11 27 17.4 101500 65
2005-07-19 09:58:27 51°16.276 2°54.251 10 27 17.4 101500 65
2005-07-19 09:58:32 51°16.275 2°54.25 8.8 26 17.4 101490 64
2005-07-19 09:58:37 51°16.275 2°54.248 11.2 27 17.4 101490 64
2005-07-19 09:58:42 51°16.274 2°54.248 9.6 24 17.3 101500 64
2005-07-19 09:58:47 51°16.273 2°54.247 9.8 31 17.3 101500 64
2005-07-19 09:58:52 51°16.272 2°54.246 10.3 28 17.3 101490 65
2005-07-19 09:58:57 51°16.271 2°54.246 9.5 28 17.3 101490 65
2005-07-19 09:59:02 51°16.27 2°54.246 9.7 25 17.3 101500 65
2005-07-19 09:59:07 51°16.27 2°54.245 10.3 29 17.3 101500 65
2005-07-19 09:59:12 51°16.269 2°54.245 10.2 31 17.3 101510 65
2005-07-19 09:59:17 51°16.269 2°54.245 10.1 37 17.3 101510 65
2005-07-19 09:59:22 51°16.268 2°54.245 9.7 37 17.3 101500 66
2005-07-19 09:59:27 51°16.267 2°54.246 10.2 34 17.3 101500 66
2005-07-19 09:59:32 51°16.266 2°54.246 10.4 31 17.3 101510 67
2005-07-19 09:59:37 51°16.266 2°54.246 10.3 32 17.3 101510 67
2005-07-19 09:59:42 51°16.265 2°54.246 10.2 31 17.3 101510 67
2005-07-19 09:59:47 51°16.264 2°54.247 9.1 32 17.3 101510 67
2005-07-19 09:59:52 51°16.264 2°54.248 10 28 17.3 101490 69
2005-07-19 09:59:57 51°16.263 2°54.248 9 30 17.3 101490 69
2005-07-19 10:00:02 51°16.263 2°54.249 9.8 30 17.3 101500 67
2005-07-19 10:00:07 51°16.262 2°54.25 9.9 35 17.3 101500 67
2005-07-19 10:00:12 51°16.262 2°54.251 10.1 35 17.3 101500 66
2005-07-19 10:00:17 51°16.261 2°54.252 9.7 34 17.3 101500 66
2005-07-19 10:00:22 51°16.261 2°54.252 9.7 33 17.3 101490 67
2005-07-19 10:00:28 51°16.26 2°54.254 10.9 39 17.3 101490 67
2005-07-19 10:00:32 51°16.26 2°54.255 10.4 39 17.2 101490 67
2005-07-19 10:00:37 51°16.259 2°54.256 9.8 36 17.2 101490 67
2005-07-19 10:00:42 51°16.259 2°54.257 10.3 36 17.2 101500 67
2005-07-19 10:00:48 51°16.259 2°54.258 10.3 39 17.2 101500 67
2005-07-19 10:00:52 51°16.258 2°54.259 10.6 42 17.2 101500 67
2005-07-19 10:00:57 51°16.258 2°54.261 11.6 37 17.2 101500 67
2005-07-19 10:01:02 51°16.257 2°54.263 10.5 38 17.2 101510 68
2005-07-19 10:01:07 51°16.257 2°54.264 10.6 33 17.2 101510 68
2005-07-19 10:01:12 51°16.257 2°54.266 10.5 33 17.2 101500 68
2005-07-19 10:01:17 51°16.256 2°54.267 9.8 31 17.2 101500 68
2005-07-19 10:01:22 51°16.257 2°54.269 10.7 36 17.2 101500 69
2005-07-19 10:01:27 51°16.256 2°54.271 9.9 30 17.2 101500 69
2005-07-19 10:01:32 51°16.256 2°54.273 8.8 33 17.1 101490 68
2005-07-19 10:01:37 51°16.256 2°54.275 9.8 31 17.1 101490 68
2005-07-19 10:01:42 51°16.256 2°54.277 9.3 28 17.2 101510 69
2005-07-19 10:01:47 51°16.256 2°54.279 9 27 17.2 101510 69
2005-07-19 10:01:52 51°16.256 2°54.281 8.8 27 17.1 101500 68
2005-07-19 10:01:57 51°16.256 2°54.283 9 28 17.1 101500 68
2005-07-19 10:02:01 51°16.256 2°54.285 9 29 17.1 101510 68
2005-07-19 10:02:07 51°16.257 2°54.287 8.6 25 17.1 101510 68
2005-07-19 10:02:12 51°16.257 2°54.29 8.3 25 17.1 101500 68
2005-07-19 10:02:17 51°16.257 2°54.292 8.9 30 17.1 101500 68
2005-07-19 10:02:22 51°16.258 2°54.295 9.6 21 17.1 101500 69
2005-07-19 10:02:27 51°16.259 2°54.298 8.4 20 17.1 101500 69
2005-07-19 10:02:32 51°16.26 2°54.301 8.5 19 17.2 101500 69
2005-07-19 10:02:37 51°16.26 2°54.304 8.4 18 17.2 101500 69
2005-07-19 10:02:41 51°16.261 2°54.306 8 24 17.2 101510 71
2005-07-19 10:02:48 51°16.262 2°54.312 7.6 25 17.2 101510 71
2005-07-19 10:02:52 51°16.262 2°54.314 9.5 21 17.2 101510 70
2005-07-19 10:02:57 51°16.263 2°54.318 8.3 29 17.2 101510 70
2005-07-19 10:03:02 51°16.263 2°54.321 9 30 17.2 101510 69
2005-07-19 10:03:07 51°16.264 2°54.325 8.9 34 17.2 101510 69
2005-07-19 10:03:12 51°16.265 2°54.329 7.2 29 17.2 101500 70
2005-07-19 10:03:17 51°16.266 2°54.333 8 24 17.2 101500 70
2005-07-19 10:03:22 51°16.267 2°54.338 7.5 28 17.2 101510 70
2005-07-19 10:03:27 51°16.267 2°54.342 9.8 24 17.2 101510 70
2005-07-19 10:03:32 51°16.268 2°54.346 8.7 24 17.3 101520 71
2005-07-19 10:03:37 51°16.269 2°54.35 9.4 25 17.3 101520 71
2005-07-19 10:03:42 51°16.27 2°54.354 9.3 31 17.3 101510 73
2005-07-19 10:03:47 51°16.272 2°54.359 9.4 27 17.3 101510 73
2005-07-19 10:03:52 51°16.273 2°54.364 8.9 33 17.3 101510 71
2005-07-19 10:03:56 51°16.273 2°54.368 9.4 33 17.3 101510 71
2005-07-19 10:04:02 51°16.275 2°54.374 9 35 17.3 101510 70
2005-07-19 10:04:07 51°16.276 2°54.378 8.6 35 17.3 101510 70
2005-07-19 10:04:12 51°16.277 2°54.384 8.9 38 17.3 101510 69
2005-07-19 10:04:16 51°16.278 2°54.387 7.6 40 17.3 101510 69
2005-07-19 10:04:22 51°16.28 2°54.394 9.2 44 17.2 101510 68
2005-07-19 10:04:27 51°16.281 2°54.399 8.9 41 17.2 101510 68
2005-07-19 10:04:32 51°16.283 2°54.403 8.6 46 17.2 101510 69
2005-07-19 10:04:37 51°16.284 2°54.409 9.9 43 17.2 101510 69
2005-07-19 10:04:42 51°16.286 2°54.414 9.3 41 17.2 101510 69
2005-07-19 10:04:47 51°16.287 2°54.419 9.2 52 17.2 101510 69
2005-07-19 10:04:52 51°16.289 2°54.424 9.2 53 17.2 101510 69
2005-07-19 10:04:57 51°16.291 2°54.429 9 56 17.2 101510 69
2005-07-19 10:05:01 51°16.292 2°54.433 9.6 57 17.2 101500 69
2005-07-19 10:05:07 51°16.295 2°54.44 8.9 61 17.2 101500 69
2005-07-19 10:05:12 51°16.297 2°54.445 8.1 73 17.2 101510 70
2005-07-19 10:05:17 51°16.299 2°54.451 8.6 73 17.2 101510 70
2005-07-19 10:05:22 51°16.3 2°54.456 6.8 76 17.1 101510 69
2005-07-19 10:05:27 51°16.302 2°54.461 7.6 77 17.1 101510 69
2005-07-19 10:05:32 51°16.303 2°54.466 8.1 84 17.1 101500 71
2005-07-19 10:05:37 51°16.305 2°54.471 9.9 81 17.1 101500 71
2005-07-19 10:05:41 51°16.307 2°54.474 9.3 80 17.1 101500 72
2005-07-19 10:05:47 51°16.309 2°54.48 7.6 80 17.1 101500 72
2005-07-19 10:05:52 51°16.31 2°54.484 10.3 82 17.2 101510 73
2005-07-19 10:05:57 51°16.313 2°54.49 10.3 83 17.2 101510 73
2005-07-19 10:06:01 51°16.314 2°54.493 10.6 94 17.1 101510 72
2005-07-19 10:06:07 51°16.316 2°54.499 9.8 98 17.1 101510 72
2005-07-19 10:06:12 51°16.318 2°54.504 11.2 97 17.2 101510 73
2005-07-19 10:06:17 51°16.319 2°54.508 10.9 92 17.2 101510 73
2005-07-19 10:06:22 51°16.321 2°54.513 11.3 101 17.2 101500 73
2005-07-19 10:06:27 51°16.323 2°54.518 12 101 17.2 101500 73
2005-07-19 10:06:32 51°16.325 2°54.523 11.8 100 17.2 101500 72
2005-07-19 10:06:36 51°16.326 2°54.527 12 107 17.2 101500 72
2005-07-19 10:06:41 51°16.328 2°54.532 10.8 104 17.1 101500 72
2005-07-19 10:06:47 51°16.33 2°54.538 10.4 103 17.1 101500 72
2005-07-19 10:06:52 51°16.332 2°54.542 10.3 108 17.1 101500 72
2005-07-19 10:06:57 51°16.334 2°54.547 9.3 111 17.1 101500 72
2005-07-19 10:07:01 51°16.335 2°54.551 10.4 113 17.1 101510 72
2005-07-19 10:07:08 51°16.338 2°54.557 11.1 111 17.1 101510 72
2005-07-19 10:07:12 51°16.338 2°54.561 10.2 102 17.1 101510 71
2005-07-19 10:07:17 51°16.34 2°54.566 9.7 106 17.1 101510 71
2005-07-19 10:07:21 51°16.342 2°54.57 9.8 107 17.1 101510 72
2005-07-19 10:07:27 51°16.344 2°54.575 10.2 107 17.1 101510 72
2005-07-19 10:07:32 51°16.345 2°54.58 9.9 109 17.1 101510 73
2005-07-19 10:07:37 51°16.347 2°54.585 9 115 17.1 101510 73
2005-07-19 10:07:42 51°16.349 2°54.589 8.4 118 17.1 101510 74
2005-07-19 10:07:47 51°16.351 2°54.594 8.5 112 17.1 101510 74
2005-07-19 10:07:52 51°16.352 2°54.599 9.6 119 17.1 101520 74
2005-07-19 10:07:57 51°16.354 2°54.603 9.4 116 17.1 101520 74
2005-07-19 10:08:02 51°16.355 2°54.608 9 117 17.1 101520 74
2005-07-19 10:08:07 51°16.356 2°54.612 9.7 107 17.1 101520 74
2005-07-19 10:08:12 51°16.358 2°54.617 11.1 111 17.1 101520 74
2005-07-19 10:08:17 51°16.36 2°54.622 10.1 111 17.1 101520 74
2005-07-19 10:08:22 51°16.361 2°54.627 10.2 107 17.1 101520 73
2005-07-19 10:08:27 51°16.363 2°54.631 10 115 17.1 101520 73
2005-07-19 10:08:32 51°16.364 2°54.635 10.4 111 17.1 101520 74
2005-07-19 10:08:37 51°16.366 2°54.64 9.6 113 17.1 101520 74
2005-07-19 10:08:42 51°16.368 2°54.645 9.5 111 17.1 101510 75
2005-07-19 10:08:47 51°16.369 2°54.65 9.2 121 17.1 101510 75
2005-07-19 10:08:52 51°16.371 2°54.655 9.9 114 17.1 101520 74
2005-07-19 10:08:57 51°16.372 2°54.659 11.2 122 17.1 101520 74
2005-07-19 10:09:02 51°16.373 2°54.664 10.1 116 17.1 101520 74
2005-07-19 10:09:07 51°16.375 2°54.669 9.6 110 17.1 101520 74
2005-07-19 10:09:12 51°16.377 2°54.674 9.8 112 17.1 101520 75
2005-07-19 10:09:17 51°16.378 2°54.678 9.4 113 17.1 101520 75
2005-07-19 10:09:22 51°16.38 2°54.683 9.4 119 17.1 101520 76
2005-07-19 10:09:27 51°16.381 2°54.688 10.2 114 17.1 101520 76
2005-07-19 10:09:32 51°16.383 2°54.693 9.1 112 17.1 101510 74
2005-07-19 10:09:37 51°16.384 2°54.698 8.5 114 17.1 101510 74
2005-07-19 10:09:42 51°16.385 2°54.702 8.5 111 17.1 101520 73
2005-07-19 10:09:47 51°16.386 2°54.708 9.9 100 17.1 101520 73
2005-07-19 10:09:52 51°16.385 2°54.712 10.4 99 17.1 101520 73
2005-07-19 10:09:57 51°16.385 2°54.718 10.5 96 17.1 101520 73
2005-07-19 10:10:02 51°16.385 2°54.723 10.1 93 17.1 101520 74
2005-07-19 10:10:07 51°16.384 2°54.728 10.5 93 17.1 101520 74
2005-07-19 10:10:12 51°16.382 2°54.732 9.5 82 17.1 101510 75
2005-07-19 10:10:17 51°16.38 2°54.736 8.2 76 17.1 101510 75
2005-07-19 10:10:22 51°16.378 2°54.738 10.6 68 17.1 101510 74
2005-07-19 10:10:27 51°16.375 2°54.741 11.2 60 17.1 101510 74
2005-07-19 10:10:32 51°16.373 2°54.742 11.8 57 17.1 101520 74
2005-07-19 10:10:37 51°16.369 2°54.743 13 47 17.1 101520 74
2005-07-19 10:10:41 51°16.367 2°54.743 12.4 47 17.1 101520 74
2005-07-19 10:10:47 51°16.364 2°54.742 11.5 43 17.1 101520 74
2005-07-19 10:10:52 51°16.362 2°54.741 11.1 33 17 101520 74
2005-07-19 10:10:57 51°16.36 2°54.738 11.4 25 17 101520 74
2005-07-19 10:11:02 51°16.358 2°54.735 11.2 19 17 101510 74
2005-07-19 10:11:07 51°16.357 2°54.731 11.1 10 17 101510 74
2005-07-19 10:11:12 51°16.357 2°54.727 11.7 6 17 101490 73
2005-07-19 10:11:17 51°16.357 2°54.721 12.2 4 17 101490 73
2005-07-19 10:11:23 51°16.358 2°54.715 11.6 354 17 101510 73
2005-07-19 10:11:27 51°16.359 2°54.71 11.6 346 17 101510 73
2005-07-19 10:11:32 51°16.362 2°54.706 11 339 17 101510 73
2005-07-19 10:11:37 51°16.365 2°54.701 12.5 332 17 101510 73
2005-07-19 10:11:42 51°16.368 2°54.696 12 330 17 101510 73
2005-07-19 10:11:48 51°16.373 2°54.69 12.2 327 17 101510 73
2005-07-19 10:11:52 51°16.376 2°54.687 11.9 329 17 101510 73
2005-07-19 10:11:57 51°16.379 2°54.683 11.4 332 17 101510 73
2005-07-19 10:12:01 51°16.382 2°54.68 12.5 336 17 101500 72
2005-07-19 10:12:07 51°16.387 2°54.676 12.6 337 17 101500 72
2005-07-19 10:12:12 51°16.39 2°54.673 11.7 339 17 101500 71
2005-07-19 10:12:16 51°16.393 2°54.67 10.7 340 17 101500 71
2005-07-19 10:12:21 51°16.397 2°54.667 11.7 335 17 101490 72
2005-07-19 10:12:27 51°16.401 2°54.663 11.7 337 17 101490 72
2005-07-19 10:12:32 51°16.404 2°54.661 11.6 337 17 101490 72
2005-07-19 10:12:37 51°16.407 2°54.658 11.9 339 17 101490 72
2005-07-19 10:12:42 51°16.41 2°54.656 11.7 338 17 101500 72
2005-07-19 10:12:47 51°16.414 2°54.653 11.3 333 17 101500 72
2005-07-19 10:12:52 51°16.417 2°54.65 11.4 339 17.1 101510 72
2005-07-19 10:12:57 51°16.421 2°54.647 11.2 341 17.1 101510 72
2005-07-19 10:13:02 51°16.424 2°54.645 11 345 17.1 101500 72
2005-07-19 10:13:07 51°16.427 2°54.643 11.1 335 17.1 101500 72
2005-07-19 10:13:12 51°16.431 2°54.64 11.4 339 17.1 101500 72
2005-07-19 10:13:17 51°16.434 2°54.638 10.3 343 17.1 101500 72
2005-07-19 10:13:22 51°16.437 2°54.636 11.7 339 17.1 101500 72
2005-07-19 10:13:27 51°16.44 2°54.633 12.4 340 17.1 101500 72
2005-07-19 10:13:32 51°16.443 2°54.631 12 339 17.1 101510 72
2005-07-19 10:13:37 51°16.447 2°54.629 12.7 336 17.1 101510 72
2005-07-19 10:13:42 51°16.45 2°54.627 12.5 338 17.1 101500 73
2005-07-19 10:13:47 51°16.453 2°54.625 11.5 336 17.1 101500 73
2005-07-19 10:13:52 51°16.456 2°54.622 10.9 331 17.1 101510 72
2005-07-19 10:13:57 51°16.459 2°54.62 12.1 341 17.1 101510 72
2005-07-19 10:14:01 51°16.462 2°54.618 10.9 343 17.1 101510 72
2005-07-19 10:14:08 51°16.466 2°54.615 10.7 337 17.1 101510 72
2005-07-19 10:14:12 51°16.469 2°54.614 10.9 338 17.1 101500 72
2005-07-19 10:14:17 51°16.472 2°54.612 11.8 336 17.1 101500 72
2005-07-19 10:14:22 51°16.475 2°54.61 11.4 332 17.1 101510 72
2005-07-19 10:14:27 51°16.479 2°54.608 11.1 333 17.1 101510 72
2005-07-19 10:14:32 51°16.482 2°54.606 11.4 334 17.1 101510 72
2005-07-19 10:14:37 51°16.485 2°54.604 11.5 333 17.1 101510 72
2005-07-19 10:14:42 51°16.488 2°54.602 11.7 334 17.1 101510 72
2005-07-19 10:14:47 51°16.491 2°54.6 11.1 336 17.1 101510 72
2005-07-19 10:14:52 51°16.495 2°54.598 11.1 335 17.1 101500 71
2005-07-19 10:14:57 51°16.498 2°54.596 10.9 339 17.1 101500 71
2005-07-19 10:15:02 51°16.501 2°54.594 11.3 335 17.1 101500 71
2005-07-19 10:15:07 51°16.504 2°54.592 10 331 17.1 101500 71
2005-07-19 10:15:12 51°16.507 2°54.591 10.6 332 17.1 101490 71
2005-07-19 10:15:17 51°16.51 2°54.588 10.6 332 17.1 101490 71
2005-07-19 10:15:21 51°16.513 2°54.587 10.8 328 17.1 101500 71
2005-07-19 10:15:27 51°16.517 2°54.585 9.8 331 17.1 101500 71
2005-07-19 10:15:32 51°16.519 2°54.583 10.6 331 17.1 101500 71
2005-07-19 10:15:37 51°16.523 2°54.581 10 338 17.1 101500 71
2005-07-19 10:15:42 51°16.526 2°54.578 9.9 337 17.1 101490 72
2005-07-19 10:15:48 51°16.529 2°54.576 10.1 342 17.1 101490 72
2005-07-19 10:15:52 51°16.531 2°54.575 10.1 338 17.1 101500 72
2005-07-19 10:15:57 51°16.535 2°54.572 11.4 342 17.1 101500 72
2005-07-19 10:16:02 51°16.537 2°54.571 12.1 341 17.1 101500 72
2005-07-19 10:16:07 51°16.54 2°54.569 12.2 341 17.1 101500 72
2005-07-19 10:16:12 51°16.543 2°54.568 12.2 340 17.1 101510 72
2005-07-19 10:16:17 51°16.546 2°54.567 12.4 338 17.1 101510 72
2005-07-19 10:16:22 51°16.548 2°54.566 11.7 339 17.2 101520 73
2005-07-19 10:16:28 51°16.552 2°54.564 13.3 339 17.2 101520 73
2005-07-19 10:16:32 51°16.554 2°54.563 11.7 339 17.1 101510 71
2005-07-19 10:16:37 51°16.558 2°54.562 11.5 343 17.1 101510 71
2005-07-19 10:16:41 51°16.56 2°54.561 12.7 340 17.2 101500 72
2005-07-19 10:16:47 51°16.564 2°54.559 12.1 340 17.2 101500 72
2005-07-19 10:16:52 51°16.567 2°54.558 11.5 338 17.1 101500 71
2005-07-19 10:16:57 51°16.57 2°54.557 11.2 338 17.1 101500 71
2005-07-19 10:17:02 51°16.573 2°54.557 11.1 336 17.1 101510 71
2005-07-19 10:17:07 51°16.576 2°54.555 10 344 17.1 101510 71
2005-07-19 10:17:12 51°16.579 2°54.554 11.4 339 17.1 101510 71
2005-07-19 10:17:17 51°16.582 2°54.553 11.5 337 17.1 101510 71
2005-07-19 10:17:22 51°16.585 2°54.551 11.7 340 17.1 101500 71
2005-07-19 10:17:27 51°16.588 2°54.551 10.2 335 17.1 101500 71
2005-07-19 10:17:32 51°16.591 2°54.549 12.4 339 17.2 101510 72
2005-07-19 10:17:37 51°16.594 2°54.548 11.8 334 17.2 101510 72
2005-07-19 10:17:42 51°16.596 2°54.547 12.3 335 17.2 101510 70
2005-07-19 10:17:48 51°16.599 2°54.546 11.4 334 17.2 101510 70
2005-07-19 10:17:52 51°16.602 2°54.545 11 337 17.2 101500 71
2005-07-19 10:17:57 51°16.605 2°54.544 11 335 17.2 101500 71
2005-07-19 10:18:02 51°16.608 2°54.543 10.9 334 17.2 101510 71
2005-07-19 10:18:07 51°16.611 2°54.542 10.7 335 17.2 101510 71
2005-07-19 10:18:12 51°16.614 2°54.541 12.2 331 17.2 101500 70
2005-07-19 10:18:16 51°16.617 2°54.54 11.3 331 17.2 101500 70
2005-07-19 10:18:21 51°16.62 2°54.54 11.1 334 17.2 101510 70
2005-07-19 10:18:27 51°16.624 2°54.538 10.2 334 17.2 101510 70
2005-07-19 10:18:32 51°16.627 2°54.538 11.9 336 17.2 101510 71
2005-07-19 10:18:37 51°16.63 2°54.537 11.6 336 17.2 101510 71
2005-07-19 10:18:41 51°16.632 2°54.537 11.2 332 17.1 101510 70
2005-07-19 10:18:47 51°16.636 2°54.537 11.7 328 17.1 101510 70
2005-07-19 10:18:52 51°16.638 2°54.537 11 328 17.1 101510 70
2005-07-19 10:18:57 51°16.642 2°54.537 10.1 324 17.1 101510 70
2005-07-19 10:19:02 51°16.644 2°54.537 10.8 323 17.2 101520 70
2005-07-19 10:19:07 51°16.648 2°54.537 9.9 326 17.2 101520 70
2005-07-19 10:19:12 51°16.651 2°54.536 10.2 324 17.2 101510 70
2005-07-19 10:19:17 51°16.654 2°54.536 10.8 324 17.2 101510 70
2005-07-19 10:19:22 51°16.657 2°54.535 9.8 331 17.2 101510 71
2005-07-19 10:19:27 51°16.66 2°54.535 11.8 332 17.2 101510 71
2005-07-19 10:19:32 51°16.663 2°54.534 11 328 17.2 101510 71
2005-07-19 10:19:38 51°16.667 2°54.534 10.8 329 17.2 101510 71
2005-07-19 10:19:42 51°16.669 2°54.534 9.5 325 17.2 101510 71
2005-07-19 10:19:47 51°16.672 2°54.533 9.6 332 17.2 101510 71
2005-07-19 10:19:52 51°16.675 2°54.533 9.5 327 17.2 101510 71
2005-07-19 10:19:57 51°16.678 2°54.532 10.8 329 17.2 101510 71
2005-07-19 10:20:01 51°16.68 2°54.531 10 335 17.2 101500 71
2005-07-19 10:20:08 51°16.684 2°54.53 10.6 333 17.2 101500 71
2005-07-19 10:20:12 51°16.687 2°54.529 10.3 336 17.3 101510 73
2005-07-19 10:20:17 51°16.69 2°54.528 11.6 340 17.3 101510 73
2005-07-19 10:20:22 51°16.693 2°54.527 10.5 337 17.3 101510 73
2005-07-19 10:20:28 51°16.696 2°54.526 11.2 340 17.3 101510 73
2005-07-19 10:20:32 51°16.699 2°54.525 10.8 335 17.3 101500 72
2005-07-19 10:20:37 51°16.702 2°54.525 11 333 17.3 101500 72
2005-07-19 10:20:41 51°16.704 2°54.524 10.9 340 17.3 101510 72
2005-07-19 10:20:47 51°16.708 2°54.522 11.2 343 17.3 101510 72
2005-07-19 10:20:52 51°16.711 2°54.522 12.6 339 17.3 101500 72
2005-07-19 10:20:57 51°16.714 2°54.521 12.1 333 17.3 101500 72
2005-07-19 10:21:01 51°16.716 2°54.52 11.5 334 17.3 101490 70
2005-07-19 10:21:07 51°16.72 2°54.518 11.2 335 17.3 101490 70
2005-07-19 10:21:12 51°16.723 2°54.518 12.1 335 17.3 101490 70
2005-07-19 10:21:17 51°16.726 2°54.517 12 333 17.3 101490 70
2005-07-19 10:21:22 51°16.729 2°54.516 11.7 333 17.3 101490 70
2005-07-19 10:21:27 51°16.732 2°54.516 10.2 338 17.3 101490 70
2005-07-19 10:21:32 51°16.734 2°54.516 11 333 17.3 101500 69
2005-07-19 10:21:37 51°16.738 2°54.515 9.4 335 17.3 101500 69
2005-07-19 10:21:42 51°16.741 2°54.514 10.8 331 17.3 101500 68
2005-07-19 10:21:47 51°16.744 2°54.513 12.7 335 17.3 101500 68
2005-07-19 10:21:52 51°16.747 2°54.512 12.9 332 17.3 101500 68
2005-07-19 10:21:57 51°16.75 2°54.511 12.5 333 17.3 101500 68
2005-07-19 10:22:02 51°16.753 2°54.51 13.1 333 17.3 101500 69
2005-07-19 10:22:07 51°16.756 2°54.51 12.8 332 17.3 101500 69
2005-07-19 10:22:12 51°16.759 2°54.509 11.9 332 17.3 101500 68
2005-07-19 10:22:17 51°16.763 2°54.508 11.8 336 17.3 101500 68
2005-07-19 10:22:22 51°16.766 2°54.508 12.5 330 17.3 101490 67
2005-07-19 10:22:27 51°16.769 2°54.508 12.1 332 17.3 101490 67
2005-07-19 10:22:32 51°16.772 2°54.507 12 328 17.3 101490 66
2005-07-19 10:22:37 51°16.776 2°54.507 11.9 329 17.3 101490 66
2005-07-19 10:22:42 51°16.779 2°54.507 10.9 329 17.3 101500 67
2005-07-19 10:22:47 51°16.782 2°54.506 12.4 334 17.3 101500 67
2005-07-19 10:22:52 51°16.785 2°54.505 11.7 329 17.3 101510 68
2005-07-19 10:22:57 51°16.789 2°54.505 11.8 326 17.3 101510 68
2005-07-19 10:23:02 51°16.792 2°54.506 11.6 325 17.2 101500 67
2005-07-19 10:23:08 51°16.796 2°54.506 11.2 332 17.2 101500 67
2005-07-19 10:23:12 51°16.799 2°54.506 10.8 329 17.3 101510 68
2005-07-19 10:23:17 51°16.802 2°54.505 11.9 329 17.3 101510 68
2005-07-19 10:23:22 51°16.805 2°54.505 11.1 328 17.3 101510 69
2005-07-19 10:23:28 51°16.809 2°54.505 11 341 17.3 101510 69
2005-07-19 10:23:32 51°16.811 2°54.505 12.5 334 17.3 101500 70
2005-07-19 10:23:37 51°16.815 2°54.504 12.2 335 17.3 101500 70
2005-07-19 10:23:42 51°16.817 2°54.504 11.4 335 17.3 101500 70
2005-07-19 10:23:47 51°16.821 2°54.503 12.3 336 17.3 101500 70
2005-07-19 10:23:52 51°16.823 2°54.502 11 339 17.3 101510 71
2005-07-19 10:23:57 51°16.826 2°54.499 13 347 17.3 101510 71
2005-07-19 10:24:02 51°16.828 2°54.498 12.8 357 17.3 101520 70
2005-07-19 10:24:07 51°16.83 2°54.496 11.1 -999 17.3 101520 70
2005-07-19 10:24:12 51°16.831 2°54.494 11.1 9 17.3 101500 70
2005-07-19 10:24:17 51°16.832 2°54.493 10.8 14 17.3 101500 70
2005-07-19 10:24:22 51°16.832 2°54.49 11.2 25 17.3 101510 69
2005-07-19 10:24:27 51°16.832 2°54.488 11.6 27 17.3 101510 69
2005-07-19 10:24:32 51°16.831 2°54.486 10.4 31 17.3 101500 70
2005-07-19 10:24:37 51°16.83 2°54.484 12.5 40 17.3 101500 70
2005-07-19 10:24:42 51°16.828 2°54.483 10.9 41 17.3 101510 70
2005-07-19 10:24:48 51°16.826 2°54.483 10.8 53 17.3 101510 70
2005-07-19 10:24:52 51°16.823 2°54.483 11.4 54 17.3 101510 69
2005-07-19 10:24:57 51°16.818 2°54.483 12.4 52 17.3 101510 69
2005-07-19 10:25:02 51°16.812 2°54.482 12.2 59 17.3 101500 70
2005-07-19 10:25:07 51°16.804 2°54.481 13.4 54 17.3 101500 70
2005-07-19 10:25:12 51°16.797 2°54.479 13.9 50 17.3 101480 70
2005-07-19 10:25:17 51°16.788 2°54.475 13.6 49 17.3 101480 70
2005-07-19 10:25:22 51°16.778 2°54.472 14.2 46 17.3 101500 70
2005-07-19 10:25:28 51°16.767 2°54.466 15.3 47 17.3 101500 70
2005-07-19 10:25:32 51°16.758 2°54.462 15.2 44 17.2 101480 70
2005-07-19 10:25:37 51°16.748 2°54.457 15.1 42 17.2 101480 70
2005-07-19 10:25:42 51°16.737 2°54.452 14.7 44 17.2 101490 70
2005-07-19 10:25:47 51°16.725 2°54.446 15.2 40 17.2 101490 70
2005-07-19 10:25:52 51°16.714 2°54.44 15.4 40 17.2 101480 71
2005-07-19 10:25:57 51°16.702 2°54.433 15.1 38 17.2 101480 71
2005-07-19 10:26:02 51°16.692 2°54.427 14.9 37 17.2 101490 71
2005-07-19 10:26:07 51°16.679 2°54.419 15.3 41 17.2 101490 71
2005-07-19 10:26:12 51°16.668 2°54.414 15.1 43 17.2 101490 70
2005-07-19 10:26:17 51°16.655 2°54.408 13.5 45 17.2 101490 70
2005-07-19 10:26:22 51°16.643 2°54.404 15.6 46 17.1 101480 70
2005-07-19 10:26:27 51°16.629 2°54.399 15 48 17.1 101480 70
2005-07-19 10:26:32 51°16.617 2°54.395 14.6 45 17.2 101480 71
2005-07-19 10:26:37 51°16.603 2°54.392 15.4 47 17.2 101480 71
2005-07-19 10:26:41 51°16.592 2°54.389 15.3 48 17.1 101480 71
2005-07-19 10:26:47 51°16.576 2°54.385 14.1 49 17.1 101480 71
2005-07-19 10:26:52 51°16.563 2°54.381 16 52 17.1 101490 71
2005-07-19 10:26:57 51°16.549 2°54.378 14.2 44 17.1 101490 71
2005-07-19 10:27:02 51°16.537 2°54.375 16 46 17.1 101480 70
2005-07-19 10:27:07 51°16.522 2°54.371 15.7 49 17.1 101480 70
2005-07-19 10:27:12 51°16.509 2°54.369 14.9 47 17.1 101470 70
2005-07-19 10:27:17 51°16.496 2°54.364 14.3 47 17.1 101470 70
2005-07-19 10:27:22 51°16.484 2°54.361 13.8 45 17.1 101480 71
2005-07-19 10:27:27 51°16.469 2°54.355 14.5 44 17.1 101480 71
2005-07-19 10:27:32 51°16.455 2°54.352 15.7 46 17.1 101480 69
2005-07-19 10:27:37 51°16.443 2°54.347 14.5 38 17.1 101480 69
2005-07-19 10:27:42 51°16.432 2°54.344 15.2 45 17.1 101480 70
2005-07-19 10:27:48 51°16.419 2°54.34 14.2 46 17.1 101480 70
2005-07-19 10:27:52 51°16.411 2°54.338 14 39 17.1 101480 71
2005-07-19 10:27:57 51°16.401 2°54.334 13.2 48 17.1 101480 71
2005-07-19 10:28:02 51°16.392 2°54.331 14 49 17.1 101470 70
2005-07-19 10:28:07 51°16.383 2°54.329 13 49 17.1 101470 70
2005-07-19 10:28:12 51°16.375 2°54.328 13 48 17.1 101480 70
2005-07-19 10:28:17 51°16.367 2°54.326 12.2 52 17.1 101480 70
2005-07-19 10:28:22 51°16.36 2°54.325 12.8 51 17.1 101490 70
2005-07-19 10:28:27 51°16.353 2°54.324 12.8 52 17.1 101490 70
2005-07-19 10:28:32 51°16.346 2°54.323 13.3 55 17 101480 70
2005-07-19 10:28:37 51°16.34 2°54.322 11.6 53 17 101480 70
2005-07-19 10:28:42 51°16.335 2°54.322 12.5 49 17.1 101490 70
2005-07-19 10:28:47 51°16.328 2°54.321 12.7 50 17.1 101490 70
2005-07-19 10:28:52 51°16.323 2°54.319 13.5 50 17.1 101490 71
2005-07-19 10:28:57 51°16.317 2°54.319 12.9 54 17.1 101490 71
2005-07-19 10:29:02 51°16.312 2°54.318 13.9 55 17.1 101500 72
2005-07-19 10:29:07 51°16.306 2°54.319 13.3 54 17.1 101500 72
2005-07-19 10:29:12 51°16.301 2°54.32 13.1 57 17 101480 71
2005-07-19 10:29:17 51°16.295 2°54.32 13.3 63 17 101480 71
2005-07-19 10:29:22 51°16.29 2°54.32 12.3 62 17.1 101480 71
2005-07-19 10:29:28 51°16.284 2°54.319 14.2 58 17.1 101480 71
2005-07-19 10:29:32 51°16.279 2°54.32 13.6 54 17 101480 71
2005-07-19 10:29:37 51°16.275 2°54.319 12.8 52 17 101480 71
2005-07-19 10:29:41 51°16.272 2°54.318 13.4 53 17 101490 71
2005-07-19 10:29:47 51°16.268 2°54.316 11.3 41 17 101490 71
2005-07-19 10:29:52 51°16.265 2°54.315 11.4 45 17 101490 70
2005-07-19 10:29:57 51°16.263 2°54.315 11.7 49 17 101490 70
2005-07-19 10:30:02 51°16.261 2°54.315 11.5 45 17 101480 69
2005-07-19 10:30:07 51°16.26 2°54.316 11.3 49 17 101480 69
2005-07-19 10:30:12 51°16.259 2°54.317 10.6 47 17.1 101500 71
2005-07-19 10:30:17 51°16.259 2°54.319 10.9 45 17.1 101500 71
2005-07-19 10:30:21 51°16.258 2°54.321 10.8 41 17 101500 71
2005-07-19 10:30:28 51°16.258 2°54.324 9.8 43 17 101500 71
2005-07-19 10:30:32 51°16.257 2°54.326 11.2 50 17 101500 69
2005-07-19 10:30:37 51°16.257 2°54.328 10.7 40 17 101500 69
2005-07-19 10:30:42 51°16.258 2°54.331 10.7 43 17 101510 68
2005-07-19 10:30:47 51°16.258 2°54.334 10 44 17 101510 68
2005-07-19 10:30:52 51°16.258 2°54.337 10.2 40 17 101510 69
2005-07-19 10:30:57 51°16.258 2°54.34 9.9 43 17 101510 69
2005-07-19 10:31:02 51°16.258 2°54.343 9.5 38 17 101510 70
2005-07-19 10:31:07 51°16.259 2°54.346 9.8 41 17 101510 70
2005-07-19 10:31:12 51°16.259 2°54.349 10 38 17.1 101510 71
2005-07-19 10:31:17 51°16.259 2°54.353 10 45 17.1 101510 71
2005-07-19 10:31:22 51°16.26 2°54.356 11.2 30 17 101510 70
2005-07-19 10:31:28 51°16.26 2°54.36 11.6 27 17 101510 70
2005-07-19 10:31:32 51°16.261 2°54.363 9.9 31 17.1 101510 71
2005-07-19 10:31:37 51°16.261 2°54.367 10.8 41 17.1 101510 71
2005-07-19 10:31:42 51°16.262 2°54.371 11.5 36 17.1 101510 71
2005-07-19 10:31:48 51°16.263 2°54.375 12.5 35 17.1 101510 71
2005-07-19 10:31:52 51°16.263 2°54.378 11.2 38 17.1 101520 72
2005-07-19 10:31:57 51°16.264 2°54.384 11.7 43 17.1 101520 72
2005-07-19 10:32:02 51°16.265 2°54.387 11.5 43 17.1 101510 73
2005-07-19 10:32:07 51°16.266 2°54.392 10.7 49 17.1 101510 73
2005-07-19 10:32:12 51°16.266 2°54.397 11.2 48 17.1 101510 71
2005-07-19 10:32:17 51°16.267 2°54.402 11.5 48 17.1 101510 71
2005-07-19 10:32:22 51°16.268 2°54.407 11.6 53 17.1 101490 69
2005-07-19 10:32:28 51°16.269 2°54.412 10.5 55 17.1 101490 69
2005-07-19 10:32:32 51°16.27 2°54.417 12 55 17.1 101510 69
2005-07-19 10:32:37 51°16.271 2°54.422 11.7 62 17.1 101510 69
2005-07-19 10:32:42 51°16.272 2°54.426 11.5 64 17.1 101500 69
2005-07-19 10:32:47 51°16.273 2°54.432 10.7 64 17.1 101500 69
2005-07-19 10:32:52 51°16.274 2°54.437 10.6 67 17.1 101500 70
2005-07-19 10:32:57 51°16.276 2°54.442 9.8 73 17.1 101500 70
2005-07-19 10:33:01 51°16.277 2°54.446 9.4 76 17 101500 68
2005-07-19 10:33:07 51°16.278 2°54.453 9.4 79 17 101500 68
2005-07-19 10:33:12 51°16.28 2°54.458 10.1 83 17 101500 68
2005-07-19 10:33:17 51°16.281 2°54.463 11 85 17 101500 68
2005-07-19 10:33:21 51°16.282 2°54.467 11.5 86 17 101500 69
2005-07-19 10:33:27 51°16.283 2°54.473 11.1 91 17 101500 69
2005-07-19 10:33:32 51°16.285 2°54.477 10.5 91 17.1 101510 71
2005-07-19 10:33:37 51°16.286 2°54.482 9.8 94 17.1 101510 71
2005-07-19 10:33:42 51°16.287 2°54.487 10.7 94 17.1 101510 69
2005-07-19 10:33:47 51°16.289 2°54.492 10.8 100 17.1 101510 69
2005-07-19 10:33:52 51°16.29 2°54.497 11.2 95 17.1 101510 69
2005-07-19 10:33:57 51°16.292 2°54.502 10.8 100 17.1 101510 69
2005-07-19 10:34:02 51°16.293 2°54.507 11.1 99 17.1 101510 70
2005-07-19 10:34:07 51°16.295 2°54.512 11.4 100 17.1 101510 70
2005-07-19 10:34:12 51°16.296 2°54.516 12.2 106 17.1 101520 70
2005-07-19 10:34:17 51°16.297 2°54.522 12.1 110 17.1 101520 70
2005-07-19 10:34:21 51°16.299 2°54.527 10.6 109 17.1 101510 69
2005-07-19 10:34:28 51°16.301 2°54.533 10.8 110 17.1 101510 69
2005-07-19 10:34:32 51°16.302 2°54.537 10.3 112 17.1 101510 70
2005-07-19 10:34:37 51°16.303 2°54.542 11.5 109 17.1 101510 70